Creek Data

    Home     View Charts     View Raw Data     Messages

ID Distance Battery Voltage Battery Current Internal Temp Internal Humidity External Temp Solar Input rssi snr Time Stamp Record
35904 0.0 4.04 0 85 37 74 5.1 -83 8 03/24/2025 01:30 PM 17675
35903 0.0 4.04 0 84 37 76 5.1 -83 8 03/24/2025 01:15 PM 17674
35902 0.0 4.04 0 84 37 73 5.1 -83 8 03/24/2025 01:01 PM 17673
35901 0.0 4.04 0 83 37 72 5.1 -83 8 03/24/2025 12:45 PM 17672
35900 0.0 4.04 0 82 37 73 5.1 -83 8 03/24/2025 12:30 PM 17671
35899 0.0 4.08 0 81 37 72 5.1 -83 8 03/24/2025 12:15 PM 17670
35898 0.0 4.04 0 81 37 71 5.1 -81 9 03/24/2025 12:00 PM 17669
35897 0.0 4.04 0 80 37 75 5.1 -82 8 03/24/2025 11:45 AM 17668
35896 0.0 4.04 0 77 37 72 5.1 -82 8 03/24/2025 11:30 AM 17667
35895 0.0 4.04 0 76 37 72 5.1 -81 8 03/24/2025 11:15 AM 17666
35894 0.0 4.04 0 75 36 73 5.1 -80 8 03/24/2025 11:00 AM 17665
35893 0.0 4.04 0 73 36 76 5.1 -81 8 03/24/2025 10:45 AM 17664
35892 0.0 4.04 0 71 36 73 5.1 -81 8 03/24/2025 10:30 AM 17663
35891 0.0 4.03 0 69 36 72 5.1 -81 8 03/24/2025 10:15 AM 17662
35890 0.0 4.03 0 67 36 73 5.1 -81 7 03/24/2025 10:00 AM 17661
35889 0.0 4.03 0 65 36 66 5.1 -81 7 03/24/2025 09:45 AM 17660
35888 0.0 4.03 0 62 37 68 5.1 -81 8 03/24/2025 09:30 AM 17659
35887 0.0 4.04 0 60 37 66 5.1 -83 8 03/24/2025 09:15 AM 17658
35886 0.0 4.03 0 58 37 63 5.1 -83 9 03/24/2025 09:00 AM 17657
35885 0.0 4.05 0 56 37 64 5.1 -83 8 03/24/2025 08:45 AM 17656
35884 0.0 4.04 0 54 37 61 5.1 -83 8 03/24/2025 08:30 AM 17655
35883 0.0 4.04 0 52 37 55 5.1 -83 8 03/24/2025 08:15 AM 17654
35882 0.0 4.11 48 50 38 54 4.5 -85 8 03/24/2025 08:00 AM 17653
35881 0.0 4.04 13 48 39 53 4.6 -83 8 03/24/2025 07:45 AM 17652
35880 0.0 4.04 7 47 39 49 4.5 -83 9 03/24/2025 07:30 AM 17651